STARLINK-11236 [DTC]

Last updated on Fri Oct 04 2024 00:02:04 GMT+0000 (Coordinated Universal Time)

1 61062U 24164N 24277.58334491 -.00011151 00000+0 -64264-4 0 9997 2 61062 53.1621 5.2691 0001165 76.8328 280.9527 15.76714398 4306
UTC large
Height (km)
Speed (km/s)
/
Latitude / Longitude
Inclination (degrees)
Orbital Period (minutes)
Azimuth
Elevation
Range (km)
Doppler Factor

Next 0 passes for location: London (51.5072 / 0.1276)

Sorry there are no passes over London.